[[{"header":{"parameterUnit":"m.s-1","parameterCategory":1,"la1":30.2991,"la2":30.254,"lo1":-89.0895,"lo2":-89.0444,"dy":0.0017,"dx":0.0017,"nx":28,"ny":28,"refTime":"2025-08-04T21:00:00:Z","depth":0,"parameterNumber":2,"parameterNumberName":"U-component_of_WINDS"},"data":[0,0,0,0,0,0,0,0,0,0,0,0,0,0,0,0,0,0,0,0,0,0,0,0,0,0,0,0,0,0,0,0,0,0,0,0,0,0,0,0,0,0,0,0,0,0,0,0,0,0,0,0,0,0,0,0,0,0,-1.8303,-1.8302,0,-1.8238,-1.8237,-1.8237,-1.8155,-1.8154,-1.8153,-1.8152,-1.8085,-1.8084,-1.8084,0,0,0,0,0,0,0,0,0,0,0,0,0,-1.8355,-1.8355,-1.8303,-1.8302,-1.8301,-1.8238,-1.8237,-1.8236,-1.8156,-1.8154,-1.8152,-1.8151,-1.8085,-1.8084,-1.8084,0,0,0,0,0,0,0,0,0,0,0,0,0,-1.8316,-1.8355,-1.8303,-1.8253,-1.8248,-1.8238,-1.8237,-1.8236,-1.8156,-1.8154,-1.8152,-1.815,-1.8085,-1.8084,-1.8084,-1.8117,0,0,-1.8081,-1.8081,0,0,0,0,0,0,0,0,-1.8318,-1.8314,-1.8261,-1.8257,-1.8251,-1.8203,-1.8231,-1.8196,-1.8156,-1.8191,-1.8152,-1.8149,-1.8126,-1.8121,-1.8113,-1.8114,-1.8111,-1.8081,-1.808,-1.808,-1.808,0,0,0,0,0,0,0,-1.8321,-1.8316,-1.8277,-1.8261,-1.8254,-1.8234,-1.8226,-1.8224,-1.817,-1.8188,-1.8182,-1.8175,-1.8122,-1.8114,-1.8111,-1.811,-1.8081,-1.808,-1.808,-1.8079,-1.8133,-1.8135,0,0,0,0,0,0,-1.8331,-1.8319,-1.8279,-1.8275,-1.828,-1.8235,-1.8226,-1.822,-1.817,-1.816,-1.8177,-1.8172,-1.8117,-1.8112,-1.8109,-1.8142,-1.808,-1.8079,-1.8079,-1.8131,-1.8133,-1.8135,0,0,0,0,0,0,-1.8333,-1.8329,-1.8282,-1.8296,-1.8288,-1.8236,-1.823,-1.822,-1.8212,-1.8162,-1.8151,-1.8179,-1.8115,-1.811,-1.8115,-1.8139,-1.8079,-1.8078,-1.8129,-1.8132,-1.8134,-1.8212,0,0,0,0,0,0,-1.8335,-1.833,-1.8342,-1.8296,-1.8288,-1.829,-1.8232,-1.822,-1.8211,-1.8203,-1.8161,-1.8152,-1.8113,-1.8117,-1.8114,-1.8137,-1.8077,-1.8126,-1.813,-1.8133,-1.8207,-1.8217,-1.8226,0,0,0,0,0,-1.8337,-1.8367,-1.8343,-1.8339,-1.8302,-1.8292,-1.8287,-1.8242,-1.8213,-1.8225,-1.8192,-1.8153,-1.8138,-1.8118,-1.8115,-1.8137,-1.8125,-1.8129,-1.8133,-1.8203,-1.8215,-1.8226,0,0,0,0,0,0,-1.8417,-1.836,-1.8333,-1.8349,-1.8326,-1.8278,-1.8291,-1.8257,-1.8241,-1.8234,-1.8179,-1.8171,-1.8182,-1.8161,-1.814,-1.8166,-1.8125,-1.8129,-1.8179,-1.8191,-1.82,-1.8204,-1.8077,0,0,0,0,0,-1.8436,-1.8433,-1.8383,-1.8403,-1.8392,-1.8344,-1.8338,-1.8305,-1.8279,-1.8268,-1.8236,-1.8212,-1.8201,-1.8195,-1.8183,-1.8205,-1.8193,-1.8218,-1.8228,-1.8236,-1.8239,-1.8247,-1.8257,-1.815,-1.815,-1.815,0,0,-1.8476,-1.8445,-1.8446,-1.8418,-1.8396,-1.8392,-1.8336,-1.8336,-1.8332,-1.8268,-1.827,-1.8247,-1.8215,-1.8229,-1.8233,-1.8211,-1.8266,-1.8241,-1.8248,-1.8247,-1.8252,-1.8262,-1.8271,-1.8153,-1.8152,-1.8152,0,0,-1.8547,-1.8524,-1.8536,-1.8516,-1.8483,-1.8451,-1.8454,-1.8411,-1.8393,-1.8394,-1.8346,-1.8341,-1.8325,-1.8304,-1.8291,-1.8354,-1.8317,-1.8352,-1.84,-1.8408,-1.8417,-1.8424,-1.8444,-1.8452,-1.8356,-1.8356,-1.8356,0,-1.8601,-1.8594,-1.8547,-1.8549,-1.8537,-1.848,-1.8491,-1.8473,-1.8439,-1.8431,-1.8408,-1.8384,-1.836,-1.8366,-1.8381,-1.8374,-1.8374,-1.8355,-1.842,-1.8426,-1.8432,-1.845,-1.8459,-1.836,-1.836,-1.8359,-1.8359,0,-1.8661,-1.8657,-1.8671,-1.8638,-1.8629,-1.8636,-1.8589,-1.8585,-1.8553,-1.8524,-1.8525,-1.8494,-1.8473,-1.8473,-1.8442,-1.8474,-1.8461,-1.843,-1.8387,-1.8447,-1.8464,-1.847,-1.8366,-1.8365,-1.8364,-1.8362,0,0,-1.8778,-1.872,-1.8726,-1.8709,-1.8669,-1.8665,-1.8669,-1.8649,-1.8645,-1.8624,-1.8624,-1.8612,-1.8581,-1.8567,-1.8534,-1.8542,-1.8591,-1.8508,-1.8507,-1.8523,-1.8621,-1.8643,-1.8652,-1.8567,-1.8568,-1.8569,-1.8623,0,-1.884,-1.8843,-1.8801,-1.8815,-1.881,-1.8755,-1.8759,-1.8734,-1.8707,-1.8698,-1.8667,-1.8658,-1.8621,-1.8611,-1.8617,-1.8584,-1.8609,-1.858,-1.8565,-1.8565,-1.8572,-1.8661,-1.8685,-1.8737,-1.8629,-1.863,-1.8631,0,-1.8911,-1.8893,-1.8907,-1.8865,-1.8862,-1.8865,-1.8842,-1.8836,-1.8806,-1.8786,-1.877,-1.8732,-1.8732,-1.8693,-1.8691,-1.8672,-1.8664,-1.8647,-1.8648,-1.8642,-1.86,-1.8656,-1.8753,-1.876,-1.8641,-1.864,-1.864,0,-1.8992,-1.8972,-1.8977,-1.8965,-1.8917,-1.8921,-1.8901,-1.887,-1.886,-1.8841,-1.8833,-1.8814,-1.8803,-1.8789,-1.8746,-1.8723,-1.8749,-1.8707,-1.873,-1.8731,-1.8735,-1.8735,-1.883,-1.8735,-1.8735,-1.8735,-1.8735,0,-1.9064,-1.9074,-1.9012,-1.9015,-1.9025,-1.8976,-1.8987,-1.8961,-1.8934,-1.893,-1.8883,-1.8881,-1.8826,-1.8817,-1.8784,-1.8786,-1.8782,-1.8764,-1.8755,-1.8767,-1.8769,-1.8759,-1.8753,-1.8737,-1.8736,-1.8736,-1.8736,0,-1.9155,-1.9115,-1.9116,-1.9071,-1.906,-1.9068,-1.9029,-1.9029,-1.8999,-1.8995,-1.8991,-1.8944,-1.893,-1.8887,-1.8864,-1.8842,-1.8853,-1.8837,-1.8862,-1.8856,-1.888,-1.8877,-1.897,-1.8978,-1.8881,-1.8882,-1.8883,0,-1.9202,-1.9208,-1.9163,-1.9157,-1.914,-1.9131,-1.9121,-1.9074,-1.9065,-1.9032,-1.9036,-1.9019,-1.9002,-1.8984,-1.8947,-1.8928,-1.8909,-1.8943,-1.8906,-1.8917,-1.8906,-1.8906,-1.8905,-1.895,-1.8952,-1.8953,-1.8954,0,-1.9288,-1.9268,-1.9255,-1.9235,-1.9224,-1.9206,-1.9185,-1.9183,-1.913,-1.9122,-1.9108,-1.9096,-1.9071,-1.9054,-1.9029,-1.9008,-1.8971,-1.8966,-1.897,-1.8981,-1.8994,-1.8984,-1.8881,-1.8963,-1.8962,-1.8962,-1.8961,-1.8961,-1.9356,-1.9358,-1.9327,-1.9314,-1.9293,-1.9275,-1.9272,-1.9242,-1.923,-1.9206,-1.918,-1.9168,-1.9138,-1.9101,-1.9082,-1.9072,-1.9052,-1.9058,-1.9059,-1.9061,-1.9065,-1.8998,-1.9067,-1.9067,-1.9067,-1.9067,-1.9066,0,-1.9438,-1.9415,-1.9404,-1.9376,-1.9365,-1.9333,-1.9308,-1.9301,-1.9292,-1.9267,-1.9252,-1.9235,-1.9219,-1.918,-1.916,-1.9159,-1.9141,-1.9155,-1.9153,-1.9148,-1.9086,-1.9083,-1.9169,-1.9169,-1.9169,-1.9169,-1.9169,-1.9169,-1.9479,-1.948,-1.9456,-1.9447,-1.9424,-1.9413,-1.9401,-1.9383,-1.9363,-1.9346,-1.9332,-1.9308,-1.9277,-1.9254,-1.9236,-1.9225,-1.9219,-1.9237,-1.9221,-1.9163,-1.9153,-1.9143,-1.914,-1.9237,-1.9237,-1.9283,-1.9284,-1.9284]},{"header":{"parameterUnit":"m.s-1","parameterCategory":1,"la1":30.2991,"la2":30.254,"lo1":-89.0895,"lo2":-89.0444,"dy":0.0017,"dx":0.0017,"nx":28,"ny":28,"refTime":"2025-08-04T21:00:00:Z","depth":0,"parameterNumber":3,"parameterNumberName":"V-component_of_WINDS"},"data":[0,0,0,0,0,0,0,0,0,0,0,0,0,0,0,0,0,0,0,0,0,0,0,0,0,0,0,0,0,0,0,0,0,0,0,0,0,0,0,0,0,0,0,0,0,0,0,0,0,0,0,0,0,0,0,0,0,0,-1.304,-1.304,0,-1.3063,-1.3063,-1.3063,-1.308,-1.308,-1.3081,-1.3081,-1.3104,-1.3105,-1.3105,0,0,0,0,0,0,0,0,0,0,0,0,0,-1.3008,-1.3009,-1.304,-1.304,-1.304,-1.3063,-1.3063,-1.3064,-1.308,-1.308,-1.3081,-1.3081,-1.3104,-1.3104,-1.3105,0,0,0,0,0,0,0,0,0,0,0,0,0,-1.3026,-1.3009,-1.3039,-1.3051,-1.3053,-1.3063,-1.3063,-1.3064,-1.308,-1.308,-1.3081,-1.3081,-1.3104,-1.3104,-1.3105,-1.3105,0,0,-1.3107,-1.3108,0,0,0,0,0,0,0,0,-1.3025,-1.3027,-1.3049,-1.305,-1.3052,-1.3069,-1.3061,-1.3078,-1.308,-1.307,-1.3081,-1.3081,-1.3092,-1.3094,-1.3098,-1.3107,-1.3108,-1.3107,-1.3108,-1.3108,-1.3108,0,0,0,0,0,0,0,-1.3023,-1.3026,-1.3049,-1.3049,-1.3051,-1.3055,-1.3058,-1.3064,-1.3079,-1.3071,-1.3072,-1.3074,-1.3093,-1.3097,-1.3098,-1.3108,-1.3107,-1.3108,-1.3109,-1.3109,-1.3117,-1.3117,0,0,0,0,0,0,-1.302,-1.3025,-1.3048,-1.3049,-1.3039,-1.3055,-1.3058,-1.3063,-1.3079,-1.3082,-1.3074,-1.3075,-1.3096,-1.3098,-1.3099,-1.31,-1.3108,-1.3109,-1.3109,-1.3117,-1.3117,-1.3117,0,0,0,0,0,0,-1.302,-1.3022,-1.3047,-1.3037,-1.3041,-1.3056,-1.3061,-1.3064,-1.3068,-1.3082,-1.3085,-1.3076,-1.3096,-1.3098,-1.3104,-1.3101,-1.3109,-1.311,-1.3117,-1.3117,-1.3117,-1.3102,0,0,0,0,0,0,-1.3019,-1.3022,-1.3023,-1.3037,-1.3041,-1.3051,-1.3061,-1.3064,-1.3069,-1.307,-1.3084,-1.3087,-1.3096,-1.3102,-1.3104,-1.3102,-1.311,-1.3118,-1.3117,-1.3117,-1.3102,-1.3101,-1.3099,0,0,0,0,0,-1.3018,-1.3018,-1.3023,-1.3025,-1.3043,-1.3051,-1.3053,-1.3065,-1.3069,-1.3069,-1.3078,-1.3086,-1.3101,-1.3103,-1.3105,-1.3103,-1.3118,-1.3117,-1.3117,-1.3103,-1.3101,-1.3099,0,0,0,0,0,0,-1.3003,-1.302,-1.3026,-1.3031,-1.3039,-1.3054,-1.3055,-1.3062,-1.307,-1.3071,-1.3084,-1.3087,-1.3091,-1.3098,-1.3099,-1.3104,-1.311,-1.311,-1.3099,-1.3097,-1.3096,-1.3094,-1.3111,0,0,0,0,0,-1.3,-1.3006,-1.302,-1.3023,-1.3027,-1.304,-1.3044,-1.3052,-1.3062,-1.3065,-1.3075,-1.3084,-1.309,-1.3094,-1.3101,-1.3103,-1.3106,-1.3103,-1.3102,-1.31,-1.31,-1.3101,-1.3099,-1.3115,-1.3115,-1.3115,0,0,-1.2994,-1.3004,-1.3007,-1.302,-1.3028,-1.3033,-1.3043,-1.3049,-1.3052,-1.3066,-1.3072,-1.3079,-1.3089,-1.3093,-1.3095,-1.3099,-1.3096,-1.31,-1.3099,-1.3099,-1.31,-1.3098,-1.3097,-1.3114,-1.3115,-1.3115,0,0,-1.2986,-1.2995,-1.2998,-1.3005,-1.3016,-1.3025,-1.3025,-1.3039,-1.3044,-1.305,-1.306,-1.3064,-1.3076,-1.3082,-1.3087,-1.3081,-1.3088,-1.3083,-1.3075,-1.3075,-1.3074,-1.3073,-1.3069,-1.3068,-1.3082,-1.3082,-1.3082,0,-1.2978,-1.2987,-1.2998,-1.3003,-1.3008,-1.302,-1.3023,-1.3029,-1.3042,-1.3045,-1.3049,-1.3063,-1.3071,-1.3075,-1.3074,-1.3077,-1.3078,-1.3081,-1.3073,-1.3072,-1.3071,-1.3068,-1.3067,-1.3081,-1.3082,-1.3082,-1.3082,0,-1.2975,-1.2981,-1.2982,-1.2993,-1.2999,-1.3002,-1.3014,-1.3017,-1.3024,-1.3032,-1.3037,-1.3047,-1.3056,-1.3057,-1.3065,-1.3063,-1.3064,-1.3071,-1.3078,-1.3069,-1.3066,-1.3065,-1.308,-1.3081,-1.3081,-1.3081,0,0,-1.2959,-1.2977,-1.2977,-1.2982,-1.2994,-1.2999,-1.3002,-1.3011,-1.3013,-1.3021,-1.3024,-1.3033,-1.3038,-1.3044,-1.3051,-1.3052,-1.3045,-1.3058,-1.3058,-1.3054,-1.3042,-1.3037,-1.3035,-1.305,-1.305,-1.3049,-1.3041,0,-1.2953,-1.296,-1.297,-1.2974,-1.2978,-1.299,-1.2993,-1.3001,-1.3008,-1.3012,-1.302,-1.3026,-1.3033,-1.3036,-1.3037,-1.3045,-1.3042,-1.3046,-1.3052,-1.3052,-1.3048,-1.3034,-1.3029,-1.302,-1.304,-1.304,-1.304,0,-1.2947,-1.2954,-1.2958,-1.2969,-1.2971,-1.2974,-1.2982,-1.2986,-1.2995,-1.3,-1.3005,-1.3014,-1.3017,-1.3024,-1.3028,-1.303,-1.3033,-1.3037,-1.3037,-1.3038,-1.3045,-1.3033,-1.3018,-1.3016,-1.3038,-1.3039,-1.3039,0,-1.2934,-1.2944,-1.2948,-1.2952,-1.2965,-1.2966,-1.2972,-1.2981,-1.2985,-1.2991,-1.2994,-1.3001,-1.3005,-1.3009,-1.3019,-1.3023,-1.3022,-1.303,-1.3026,-1.3025,-1.3025,-1.3024,-1.3009,-1.3028,-1.3028,-1.3028,-1.3028,0,-1.2925,-1.2927,-1.2942,-1.2944,-1.2946,-1.2957,-1.2958,-1.2965,-1.2972,-1.2975,-1.2986,-1.2988,-1.3001,-1.3005,-1.3013,-1.3014,-1.3016,-1.302,-1.3022,-1.3019,-1.3018,-1.302,-1.3021,-1.3027,-1.3027,-1.3027,-1.3028,0,-1.2911,-1.2921,-1.2925,-1.2937,-1.294,-1.2941,-1.2951,-1.2953,-1.296,-1.2964,-1.2965,-1.2977,-1.2982,-1.2992,-1.3,-1.3005,-1.3004,-1.3008,-1.3001,-1.3003,-1.2998,-1.2998,-1.2982,-1.298,-1.3001,-1.3001,-1.3001,0,-1.2905,-1.2907,-1.2918,-1.2921,-1.2926,-1.293,-1.2934,-1.2945,-1.2948,-1.2957,-1.2958,-1.2964,-1.2969,-1.2976,-1.2985,-1.299,-1.2994,-1.2988,-1.2995,-1.2991,-1.2993,-1.2992,-1.2992,-1.2986,-1.2986,-1.2986,-1.2986,0,-1.2893,-1.2897,-1.2902,-1.2908,-1.2913,-1.2918,-1.2924,-1.2926,-1.2938,-1.2941,-1.2946,-1.295,-1.2957,-1.2962,-1.2969,-1.2974,-1.2982,-1.2983,-1.2983,-1.2979,-1.2975,-1.2976,-1.2996,-1.2984,-1.2984,-1.2984,-1.2984,-1.2984,-1.2882,-1.2883,-1.2891,-1.2896,-1.2902,-1.2907,-1.2909,-1.2916,-1.292,-1.2927,-1.2933,-1.2937,-1.2944,-1.2954,-1.2959,-1.2962,-1.2966,-1.2965,-1.2964,-1.2964,-1.2962,-1.2975,-1.2963,-1.2963,-1.2963,-1.2963,-1.2963,0,-1.2869,-1.2875,-1.2879,-1.2887,-1.289,-1.2897,-1.2903,-1.2906,-1.2909,-1.2915,-1.292,-1.2925,-1.2929,-1.2938,-1.2943,-1.2944,-1.2947,-1.2945,-1.2944,-1.2945,-1.2959,-1.2958,-1.2942,-1.2942,-1.2942,-1.2942,-1.2942,-1.2942,-1.2863,-1.2865,-1.287,-1.2875,-1.288,-1.2884,-1.2887,-1.2891,-1.2896,-1.2901,-1.2905,-1.2911,-1.2918,-1.2923,-1.2927,-1.293,-1.2931,-1.2927,-1.293,-1.2943,-1.2945,-1.2946,-1.2946,-1.2927,-1.2927,-1.2916,-1.2916,-1.2916]}]]